Wind_Speed
13 13 14 14 14 15 16 16 16 16 17 16 16 16 16 16 15 15 14 13 14 16 15 15 16 16 17 17 18 19 20 21 21 22 27 28 24 20 16 13 12 14 17 17 16 14 11 10 8 6 7 9 9 9 11 12 10 6 2 3 4 4 4 4 6 5 3 5 7 12 16 8 5 3 16 15 17 21 16 10 12 9 11 24 22 32 40 33
13 14 14 15 15 15 16 17 17 17 16 16 15 16 16 16 16 14 14 13 13 15 15 15 15 16 16 16 17 18 20 20 22 26 27 25 23 21 20 17 14 16 18 18 18 16 13 11 9 6 6 7 7 8 9 10 11 8 3 2 5 4 5 5 6 6 5 8 9 14 20 11 3 5 13 11 9 15 14 12 16 19 20 24 29 39 37 34
14 14 15 16 16 16 16 17 17 17 16 15 16 16 16 16 16 14 13 14 13 14 15 15 15 16 16 16 16 16 18 18 22 28 25 22 23 22 21 20 18 18 19 19 17 16 14 11 8 6 5 5 7 8 7 7 8 9 6 3 6 5 5 9 12 14 14 14 9 11 19 13 4 8 9 9 8 9 11 14 19 24 29 31 36 40 37 36
14 14 15 16 16 16 17 17 17 17 17 16 16 16 16 16 16 14 13 13 13 13 14 15 15 16 16 15 14 13 13 14 18 21 17 15 17 18 22 23 20 21 21 19 16 15 12 10 10 7 3 4 6 7 5 7 6 6 7 4 5 5 5 12 16 17 20 17 9 10 15 11 6 9 12 15 10 1 8 23 28 32 38 38 38 39 39 37
14 14 14 16 16 16 17 17 17 17 17 16 16 16 16 16 16 16 15 14 14 14 14 15 15 16 16 14 11 7 5 7 7 8 5 4 10 17 22 24 23 24 23 20 17 16 13 11 10 7 3 3 4 4 4 10 8 3 5 5 6 5 4 11 15 17 19 15 8 8 9 9 6 8 20 20 10 7 18 29 35 41 43 42 42 41 40 37
15 15 15 16 17 16 17 17 18 18 17 17 16 15 16 17 17 16 16 15 15 15 14 15 15 15 16 14 9 4 4 2 3 9 6 3 8 16 22 25 25 26 26 22 19 18 15 12 10 6 4 2 3 4 5 10 9 4 5 5 9 11 8 12 18 20 20 11 7 5 6 8 5 8 19 13 3 9 23 27 32 40 42 43 45 43 41 39
16 16 16 17 17 17 17 16 17 18 18 18 17 16 16 16 17 16 16 16 15 16 15 15 15 14 15 14 9 6 11 14 8 7 6 3 4 8 17 25 28 29 28 26 23 20 16 12 10 8 4 2 4 6 8 10 8 6 4 3 10 14 12 17 22 25 25 18 17 13 7 6 1 7 10 5 6 6 18 24 29 36 39 42 43 42 41 39
17 18 18 18 18 17 17 17 17 18 18 17 18 17 16 17 17 16 17 16 16 16 15 14 13 13 14 12 8 6 15 23 16 9 5 2 4 4 6 18 27 31 29 28 27 24 18 13 13 10 4 4 5 3 5 7 5 6 6 5 9 14 15 20 23 25 27 25 24 15 5 3 3 6 2 3 1 12 20 27 31 34 37 38 40 40 38 36
19 20 20 20 20 19 19 18 18 19 19 18 17 17 17 18 18 17 17 17 16 16 14 13 13 13 11 10 7 7 20 29 24 18 9 2 2 5 5 12 22 28 28 27 26 24 20 16 17 15 7 6 6 5 3 1 3 5 8 10 9 13 17 18 18 21 23 24 21 9 1 7 11 8 4 3 10 19 24 30 33 35 36 34 34 36 36 35
19 20 21 22 21 20 21 21 20 20 20 19 19 19 19 18 18 17 18 17 15 15 15 13 12 12 10 8 4 6 20 25 23 25 21 13 6 1 4 12 20 24 24 24 25 24 23 20 19 16 9 6 5 7 5 3 5 7 8 10 10 14 17 15 14 18 18 19 20 9 3 10 13 5 1 4 15 23 28 31 33 35 34 31 31 34 33 32
20 20 21 21 20 21 22 22 22 21 20 20 20 20 20 19 18 17 17 17 15 14 14 13 12 11 10 8 7 12 19 15 14 22 25 25 18 10 7 10 17 22 22 23 24 24 24 23 18 9 6 6 4 5 5 5 8 13 12 9 10 13 14 13 11 15 12 11 17 11 4 7 6 2 7 14 19 26 31 32 32 34 32 29 30 32 31 30
20 20 21 20 19 20 22 22 23 22 20 20 21 21 21 20 20 19 18 18 15 14 14 14 12 11 11 12 20 24 18 10 10 16 22 26 25 19 12 10 15 18 21 22 22 21 21 24 20 11 7 4 3 3 4 6 8 12 11 5 9 9 8 9 8 11 7 6 15 8 0 2 2 2 16 23 24 26 31 33 32 30 29 29 31 31 30 28
21 21 21 21 20 20 21 21 22 22 20 21 23 22 21 20 19 19 18 17 16 14 14 13 12 11 10 16 28 29 20 13 15 18 17 20 24 23 17 14 16 16 17 20 19 17 17 21 22 20 15 6 1 3 7 10 9 9 5 3 4 6 6 7 6 7 6 6 13 5 1 6 5 4 20 27 27 26 26 30 29 25 27 30 31 31 30 28
22 21 20 21 22 20 20 20 21 21 20 21 23 22 21 21 21 19 17 16 15 13 12 10 11 10 10 21 29 27 24 22 26 25 16 15 21 24 20 17 18 17 15 17 18 16 16 17 19 20 19 14 8 8 9 8 5 4 3 1 1 1 5 8 4 6 5 8 12 8 3 6 1 7 21 26 30 31 25 25 27 25 26 29 30 30 31 29
22 22 21 21 22 20 20 20 20 20 21 22 23 23 22 22 22 19 15 14 12 9 9 10 11 10 11 23 27 16 14 19 24 25 17 15 21 23 22 19 20 20 17 17 18 16 16 16 18 16 11 14 12 6 5 4 3 2 2 4 1 3 5 8 3 8 7 6 7 10 3 5 2 9 21 25 28 30 26 24 25 25 26 28 28 30 31 29
21 22 21 21 22 21 21 21 20 21 21 23 24 24 22 22 21 16 13 13 9 6 8 9 9 8 6 14 15 8 10 15 17 20 22 23 23 23 22 19 20 19 17 18 18 16 15 14 17 16 9 7 5 3 1 4 4 3 2 3 2 2 2 5 4 6 10 4 3 5 3 3 3 11 21 24 26 26 24 24 25 26 26 28 29 31 32 30
21 21 22 22 21 22 23 22 21 21 22 24 25 24 22 21 18 15 13 9 6 5 7 5 2 6 11 12 12 10 10 11 12 15 20 24 25 24 22 19 18 18 16 17 18 16 15 15 14 10 8 6 3 5 2 4 5 3 1 3 3 2 2 2 4 4 7 5 3 5 4 4 3 12 21 24 26 23 22 24 25 26 26 28 31 32 33 32
21 21 21 21 21 22 23 22 21 22 23 25 26 25 22 18 14 13 11 8 6 4 4 6 4 1 10 13 13 11 7 7 9 9 13 18 23 25 23 19 15 14 13 12 14 16 15 14 10 4 4 5 4 6 6 6 6 3 3 2 2 3 3 4 4 4 4 4 5 6 6 6 2 10 20 25 27 23 22 26 27 27 28 29 30 30 31 31
21 21 20 21 21 21 22 22 22 22 23 25 26 22 15 11 9 6 6 10 9 5 3 9 13 5 8 13 14 11 10 10 8 7 9 15 20 22 20 19 16 13 8 4 8 14 14 8 6 6 5 7 8 8 9 6 6 7 6 4 3 4 4 4 5 5 4 4 4 7 7 6 4 8 15 22 26 23 23 26 26 26 27 28 27 27 29 30
21 20 20 20 19 20 22 23 23 21 22 24 25 19 10 8 5 1 3 11 15 14 13 13 18 17 20 25 21 15 14 14 12 9 6 11 18 20 18 17 14 10 6 3 5 12 13 7 6 9 7 8 8 8 8 5 5 6 5 4 4 4 5 4 4 6 1 3 5 6 7 6 7 9 12 20 23 18 18 20 21 24 25 26 26 26 28 29
21 20 20 20 19 20 21 22 23 20 21 22 23 18 9 8 5 3 8 13 20 24 26 26 24 26 30 31 27 19 15 14 15 13 7 9 16 17 16 15 8 5 7 5 4 7 11 8 8 8 6 7 7 7 8 6 5 4 4 4 4 4 5 5 3 6 1 2 5 2 5 7 7 9 11 17 17 13 17 19 20 24 24 25 26 26 28 28
20 20 19 20 19 19 19 21 22 20 21 20 18 14 9 11 9 8 11 12 23 28 27 29 30 34 37 35 31 22 13 11 14 14 10 12 18 15 14 13 6 4 6 5 4 4 7 7 7 7 6 7 6 7 9 8 7 5 4 3 4 4 3 5 4 5 0 3 4 1 4 7 4 9 11 14 15 17 25 26 25 28 25 24 26 27 29 30
20 19 19 20 19 19 19 20 21 20 19 18 15 12 10 14 15 15 13 10 20 26 25 28 31 37 39 35 31 23 13 9 13 16 13 13 18 18 15 10 6 6 6 6 7 6 5 6 6 8 7 8 5 6 9 7 6 5 5 4 4 4 1 3 4 5 2 2 3 2 3 5 2 7 9 16 21 23 29 31 31 34 31 30 32 33 35 35
21 19 19 19 18 19 18 19 21 18 17 15 11 9 12 16 17 17 13 8 11 16 18 24 27 34 38 31 22 18 19 15 13 16 15 14 16 17 14 10 8 7 7 8 8 6 4 4 8 10 8 9 6 5 8 7 5 5 6 6 5 4 4 3 3 5 4 4 1 3 3 6 3 8 7 12 17 17 23 26 25 28 26 25 28 30 34 36
20 19 19 18 18 18 16 19 20 16 14 11 8 8 10 15 16 11 7 5 6 8 9 13 18 24 27 20 13 14 17 17 19 19 14 14 17 13 9 10 10 7 9 8 6 6 5 5 9 11 8 9 8 6 7 7 5 5 6 8 8 5 4 2 3 5 6 5 3 4 2 7 3 8 9 8 9 9 15 18 19 21 19 20 23 27 31 33
19 19 18 18 17 16 15 17 16 14 14 9 6 8 8 11 13 5 2 2 4 4 1 4 10 10 11 15 18 14 6 10 20 22 15 12 16 14 8 7 7 6 7 6 3 3 4 5 7 9 8 8 8 7 7 8 6 4 5 9 9 6 5 2 3 3 1 3 5 2 4 5 5 4 8 10 11 11 12 13 17 21 21 23 25 27 31 33
20 19 18 18 17 14 15 15 14 16 14 7 6 8 6 8 10 3 3 2 3 3 3 5 7 4 6 17 26 17 2 4 11 18 19 15 15 17 11 5 4 5 5 5 3 2 6 8 6 7 9 8 8 6 6 9 7 4 6 9 8 6 6 5 2 2 3 3 5 1 5 4 6 5 6 12 15 13 12 12 13 17 22 27 28 29 31 33
20 18 17 18 17 15 14 15 17 15 10 6 7 7 3 4 4 4 2 3 1 3 2 4 4 3 7 18 28 19 4 2 6 13 20 16 15 17 11 6 6 5 5 6 5 3 5 10 8 7 8 7 8 6 7 11 6 5 6 9 7 8 7 6 5 5 3 1 6 4 3 3 6 5 1 8 14 13 14 15 13 15 23 28 28 29 30 32
19 18 17 17 17 16 13 16 17 12 9 9 8 5 3 3 0 3 1 3 2 2 0 3 4 5 11 15 20 18 7 1 2 13 22 16 15 14 7 7 7 4 5 5 5 4 3 11 13 9 6 6 7 6 8 11 6 4 6 7 4 5 5 5 6 5 1 1 7 6 4 4 5 4 3 4 8 12 14 13 14 19 26 29 28 29 30 32
18 17 16 15 16 15 14 16 15 9 10 12 8 5 4 2 2 1 3 2 1 1 1 3 5 9 15 10 8 11 7 3 2 11 19 15 16 14 7 9 9 4 5 3 5 5 4 10 14 9 6 6 7 7 8 11 7 3 6 5 3 1 1 2 2 2 2 4 8 7 8 6 4 4 2 3 4 8 12 11 11 16 24 29 29 31 33 34
17 17 15 15 15 14 14 13 7 6 10 11 9 5 2 1 2 2 4 2 3 2 1 0 3 10 13 7 5 6 4 2 3 4 11 9 11 12 7 8 7 4 5 4 6 8 6 6 6 6 10 8 6 6 6 8 8 5 5 4 2 3 3 2 2 2 3 7 6 6 9 8 5 4 2 3 5 6 13 15 14 15 22 29 31 32 34 34
16 16 16 15 14 14 16 12 6 7 10 9 8 3 2 1 1 4 4 5 3 2 3 2 2 5 8 4 3 6 4 2 2 1 5 5 6 8 6 6 6 5 6 5 5 6 7 6 3 4 12 12 7 4 4 5 6 5 4 5 4 1 0 1 2 1 4 8 4 4 6 5 5 5 3 5 6 6 12 17 22 25 27 30 32 33 33 32
16 16 16 15 14 16 17 13 9 9 8 8 6 0 3 1 2 5 5 4 2 4 6 4 5 2 7 4 2 5 3 1 3 2 2 4 5 6 6 6 7 6 4 4 5 5 6 7 5 4 7 11 10 5 4 4 5 6 5 6 5 3 3 4 4 1 3 6 4 1 2 3 4 3 3 6 7 6 8 13 22 29 33 35 33 32 30 31
15 15 15 15 16 18 16 11 8 8 8 8 3 2 3 3 3 3 3 3 5 8 7 7 9 4 8 5 2 5 3 1 3 4 2 4 5 6 6 5 6 6 4 4 5 6 7 7 7 6 4 9 11 7 7 6 5 6 5 6 5 4 5 4 4 3 4 5 4 3 1 3 2 1 4 6 6 4 10 10 13 19 27 32 31 29 30 30
14 13 14 15 16 17 14 8 6 7 6 4 0 2 4 3 2 2 2 3 5 7 11 11 7 1 5 4 2 5 5 2 3 3 2 4 5 5 6 4 5 5 5 5 3 3 8 7 5 6 6 9 10 7 8 8 5 5 4 5 5 5 5 2 3 6 4 2 2 2 1 1 2 2 5 2 2 9 16 16 16 18 21 27 28 28 30 30
12 12 13 16 14 11 8 5 5 7 7 3 1 4 4 1 2 2 3 4 4 8 12 11 4 3 1 1 2 5 4 1 3 2 1 3 4 4 5 4 5 6 5 5 3 2 6 6 5 4 6 8 11 10 9 9 5 3 5 6 5 5 5 2 2 1 4 4 2 2 1 1 1 2 3 5 7 10 13 13 16 19 21 23 23 25 28 28
12 13 14 15 12 6 4 4 6 10 10 4 2 3 2 2 3 3 5 6 7 9 9 6 3 3 1 0 1 4 4 1 2 3 1 2 3 4 5 4 6 8 6 5 2 2 5 3 6 5 6 10 13 11 8 10 9 5 5 7 4 4 2 1 2 1 3 4 3 2 2 2 1 1 2 8 9 10 11 10 12 16 19 20 19 22 26 27
12 12 12 9 7 4 8 7 8 12 10 3 4 4 2 2 4 7 8 7 9 9 6 3 2 2 2 1 3 1 5 3 2 4 3 2 2 4 6 4 5 9 9 7 2 2 4 0 6 6 8 8 8 7 4 7 9 5 5 7 6 4 3 1 3 3 2 3 1 2 3 3 2 3 4 9 10 11 11 10 10 12 17 20 19 23 26 27
10 9 7 6 5 3 11 11 11 12 7 3 5 4 2 3 6 9 9 7 7 7 5 3 2 2 3 1 1 2 3 5 4 3 3 2 3 4 7 6 5 8 11 9 4 2 2 2 4 5 6 4 4 5 4 5 4 2 4 6 5 4 4 4 3 3 4 3 1 0 3 3 3 4 7 11 12 12 12 11 10 11 16 22 22 24 26 27
6 6 3 4 8 3 13 12 12 10 3 2 4 4 2 4 7 9 8 7 7 6 4 4 3 3 3 1 1 2 0 2 4 3 2 4 4 4 6 7 5 7 11 10 6 2 1 2 2 4 2 3 3 5 6 7 5 3 5 5 3 2 2 2 2 2 4 4 2 2 2 4 4 3 8 12 12 12 13 12 10 12 19 23 25 26 26 27
5 3 3 6 8 5 16 12 8 4 1 1 1 3 4 5 7 9 11 12 10 9 8 8 7 4 4 3 2 2 3 1 3 3 1 3 4 2 6 9 7 7 8 7 6 4 1 2 2 2 1 4 5 5 6 9 8 6 6 6 6 4 4 3 3 2 3 4 4 5 3 5 5 2 5 9 8 9 12 11 9 13 20 23 26 28 28 28
4 2 5 10 6 11 17 8 3 2 1 3 3 4 6 6 6 8 11 12 10 10 10 9 8 6 5 4 0 1 3 3 1 2 1 4 5 4 7 11 11 10 9 5 4 5 3 3 2 3 2 5 7 5 5 6 7 6 4 5 5 5 5 6 5 3 1 2 3 4 1 4 5 3 3 8 7 10 16 17 14 16 21 24 26 29 30 29
4 6 9 11 3 15 15 3 2 3 2 4 5 7 8 7 6 7 8 8 8 7 7 6 5 5 5 4 2 2 4 3 1 2 2 2 5 6 7 10 12 9 7 5 3 4 4 3 2 2 3 3 5 4 2 1 5 5 2 3 5 5 5 6 5 4 4 3 3 3 1 3 3 3 3 10 11 13 17 21 21 20 21 26 28 29 29 28
8 11 9 8 3 15 13 1 3 5 3 4 5 7 9 7 7 8 7 7 7 5 5 5 4 4 3 3 3 3 4 1 0 1 2 1 3 5 5 10 14 9 5 7 6 6 5 2 3 1 2 2 3 3 2 2 2 3 2 2 4 6 6 4 3 3 3 4 5 5 3 3 2 1 6 11 12 11 13 20 25 23 23 26 28 28 28 27
8 7 5 7 1 14 10 2 0 3 3 4 5 6 7 6 7 10 11 11 11 9 6 6 4 2 3 0 1 2 2 2 1 2 1 2 3 3 3 6 15 12 9 13 13 11 7 2 4 4 3 3 3 3 3 2 1 0 1 2 2 5 7 5 3 4 2 3 4 5 4 2 2 5 9 10 11 11 12 17 23 24 25 25 26 28 29 28
5 3 3 5 2 10 6 3 2 1 2 3 3 4 6 4 5 11 13 12 13 13 9 8 8 3 2 2 0 2 3 2 1 2 1 2 4 3 5 2 7 7 10 19 19 11 4 1 5 7 6 6 5 4 4 2 2 1 2 4 3 1 5 6 5 4 4 4 3 4 5 7 7 9 10 10 11 12 12 16 21 24 26 26 26 28 29 28
3 2 2 3 1 4 4 3 2 1 1 2 2 2 3 3 4 7 7 7 10 10 6 5 5 2 4 3 1 0 4 3 1 1 1 3 4 3 6 5 9 11 1 14 17 9 4 2 5 5 4 5 4 4 3 2 3 2 1 3 4 1 4 7 5 5 6 6 2 4 7 10 10 11 12 12 14 13 12 16 22 26 28 29 29 29 28 26
3 3 3 3 1 1 2 3 3 3 3 3 2 2 3 5 6 5 4 6 8 7 2 1 3 1 5 6 3 2 3 3 2 1 1 2 3 4 6 4 5 12 8 4 7 6 5 2 3 4 4 1 1 1 4 5 3 2 3 4 4 3 3 7 5 6 8 7 4 6 12 12 11 13 15 14 15 16 17 21 26 27 28 29 30 29 28 27
4 4 4 3 2 3 4 5 3 4 5 3 2 2 3 5 7 5 3 4 5 4 1 2 4 5 1 1 3 3 3 1 1 2 2 1 3 2 4 3 4 8 8 4 1 2 4 1 1 5 5 5 6 4 1 7 4 3 4 4 4 2 4 5 4 4 6 6 6 10 11 6 6 11 12 12 15 19 21 24 26 27 28 29 30 29 28 28
6 6 6 6 5 6 7 6 4 3 3 3 3 3 3 5 6 6 3 3 4 5 3 3 5 7 4 3 4 3 4 4 3 2 2 1 3 1 2 1 2 6 6 3 1 2 4 0 1 5 5 4 5 6 3 7 7 4 5 6 8 6 2 1 3 3 5 6 6 11 7 2 2 6 10 14 20 22 22 23 24 26 28 30 30 29 29 29
12 12 11 7 4 3 4 3 3 3 2 2 3 2 3 4 4 6 5 5 6 3 3 4 5 5 3 4 4 0 4 4 5 4 3 2 3 1 1 1 2 2 5 3 1 2 4 2 1 5 5 3 4 5 3 6 8 6 5 7 8 5 2 2 2 3 6 10 10 9 6 2 3 8 12 15 20 20 19 22 24 25 28 31 31 30 31 31
18 18 15 7 3 3 3 0 1 2 1 1 2 3 4 5 5 6 5 5 3 1 6 7 4 2 3 3 3 3 6 5 3 2 1 2 0 3 4 2 4 3 1 0 2 2 4 5 2 4 4 2 4 4 4 5 6 3 2 2 2 2 2 3 5 3 5 12 11 6 5 7 9 12 13 13 15 17 20 25 27 28 28 30 32 33 33 32
Wind_Direction
325 323 323 324 327 327 326 326 325 323 322 321 321 319 318 317 314 313 312 314 314 313 313 312 310 303 293 286 283 276 272 268 263 258 253 249 244 244 241 231 217 214 225 227 220 218 223 232 230 226 211 202 214 219 211 218 213 192 133 169 227 220 208 206 197 209 231 283 309 319 338 355 283 95 110 124 125 127 134 121 143 172 171 168 169 162 163 164
319 320 321 322 323 323 325 325 324 322 320 320 322 318 318 318 314 312 314 314 309 308 314 315 314 311 300 290 286 283 279 276 272 262 253 252 253 249 239 232 218 212 222 226 224 225 230 240 235 220 211 206 209 206 205 211 201 186 136 189 224 209 219 227 226 261 276 284 309 311 324 345 223 161 122 126 118 120 114 106 124 125 136 153 156 159 163 165
316 318 318 318 319 322 323 322 322 321 320 321 319 318 319 317 315 313 311 309 308 309 312 314 315 315 307 295 289 288 287 287 284 270 262 264 262 252 239 229 215 210 220 224 225 228 234 243 234 220 220 226 214 205 204 197 194 197 191 221 242 216 236 262 258 264 272 278 301 310 319 339 230 191 134 127 124 128 130 135 134 131 140 149 153 159 163 165
315 315 315 316 317 320 321 321 321 320 321 321 317 318 317 315 315 313 307 305 308 308 310 314 314 314 311 301 294 292 298 307 294 274 268 270 257 244 235 226 212 208 217 222 219 220 229 238 233 233 236 250 232 226 232 208 200 200 194 205 234 212 234 263 261 264 273 277 293 312 317 330 267 207 152 134 121 128 178 162 157 152 151 152 156 162 164 168
313 314 313 314 315 318 319 320 320 319 320 317 315 316 315 313 313 313 311 308 310 307 307 311 311 316 313 302 297 288 307 333 289 229 225 246 224 225 225 219 209 206 214 218 213 211 220 233 237 245 237 245 238 228 245 229 227 237 221 212 229 237 243 268 273 273 277 281 298 314 314 321 305 187 159 152 146 194 192 176 166 159 156 158 162 164 167 171
312 314 313 313 315 317 317 319 319 319 320 316 312 311 311 311 308 311 311 310 311 307 309 310 309 316 312 302 297 250 208 228 177 164 164 168 197 215 217 211 202 202 212 214 211 211 219 232 234 229 208 231 228 207 241 242 232 246 265 236 247 253 247 273 282 280 282 289 288 285 303 319 343 156 169 176 234 203 186 176 166 161 161 162 164 166 169 174
309 310 311 315 317 317 316 318 318 318 321 317 312 309 308 308 306 306 304 305 306 306 311 309 311 315 311 305 291 242 227 229 208 169 179 163 170 205 212 208 198 197 207 210 209 210 218 221 216 212 197 231 222 211 245 257 237 227 266 265 261 262 256 273 282 283 283 280 276 276 294 312 357 158 184 231 304 212 178 167 161 159 159 160 163 167 171 175
305 308 312 316 318 319 318 318 317 318 317 313 311 310 307 304 301 298 296 300 303 307 309 307 313 311 308 309 298 274 244 230 214 201 205 146 111 114 182 201 197 196 200 208 211 211 216 211 208 208 193 226 219 218 255 270 259 224 242 262 267 267 267 277 281 281 279 275 279 282 267 247 173 143 142 345 160 169 164 158 157 156 157 160 164 168 171 175
302 306 310 314 317 321 321 318 316 316 316 312 307 304 302 300 297 294 292 295 302 304 304 307 312 308 310 309 305 287 250 237 227 225 234 246 102 85 119 177 192 199 200 207 211 211 214 212 215 212 206 235 233 262 270 256 261 218 225 247 261 265 269 278 279 277 275 273 278 286 202 167 149 128 43 36 142 153 154 154 155 156 158 161 165 169 172 176
297 301 307 311 313 319 323 320 316 315 316 313 307 300 296 296 297 297 292 293 298 302 303 303 303 305 306 290 288 268 249 246 242 235 237 247 244 122 150 169 185 201 207 211 212 213 214 214 220 216 225 251 237 250 235 192 253 253 249 254 259 266 272 277 277 277 275 274 271 264 210 175 161 144 16 144 148 149 149 151 157 158 159 162 166 171 174 178
292 296 301 305 307 314 321 322 318 315 314 313 311 304 296 292 291 292 293 293 290 294 300 300 300 296 289 269 238 242 247 247 245 236 233 239 241 237 226 190 190 201 212 219 219 220 219 220 223 208 219 239 238 261 245 239 269 271 272 279 272 272 279 272 266 273 271 273 269 253 198 178 169 178 165 157 153 152 149 151 160 160 161 164 164 170 177 181
287 290 295 298 301 307 314 320 319 315 313 312 311 307 302 295 290 289 292 294 287 285 291 297 298 282 278 264 242 241 247 241 242 241 231 233 237 237 238 221 206 204 213 224 229 228 224 228 228 207 201 220 234 269 285 296 304 286 272 271 282 293 293 261 244 257 243 250 266 263 114 236 302 197 156 153 154 152 150 152 161 164 164 166 164 169 180 183
285 286 291 294 297 302 307 314 319 316 312 311 310 308 306 300 296 293 290 290 287 284 287 292 291 279 274 261 252 255 264 256 249 250 232 228 233 232 235 231 218 212 217 226 232 235 232 233 231 219 218 227 230 259 296 320 331 311 279 183 271 317 304 255 227 222 198 240 252 233 287 273 302 173 152 151 154 150 151 156 163 166 164 166 166 171 181 183
285 284 287 290 293 298 303 309 315 316 312 310 310 308 306 301 297 293 287 286 284 282 283 283 282 276 260 262 270 277 276 264 253 249 231 220 230 228 229 229 224 221 223 228 230 235 241 238 231 225 228 235 253 287 311 328 333 315 288 221 236 251 277 274 236 169 171 253 228 173 233 261 279 154 154 156 158 152 155 161 164 167 164 166 167 173 182 182
284 283 283 287 290 294 300 305 310 313 312 310 309 309 306 300 299 295 286 281 275 274 277 275 271 262 262 273 282 289 273 264 253 240 219 213 227 226 221 220 224 224 227 236 234 232 245 239 216 212 226 235 243 282 328 331 333 344 237 288 317 181 262 294 267 164 177 250 201 162 217 259 222 164 161 162 162 156 156 163 166 168 167 169 170 176 183 183
284 282 282 284 287 291 299 303 307 312 311 311 309 309 306 301 302 294 277 269 257 255 262 268 259 235 259 283 286 282 254 257 252 236 225 223 226 222 216 217 223 224 228 240 240 236 242 227 203 203 208 214 208 163 11 322 323 348 192 238 269 183 261 300 287 199 190 196 192 177 182 248 244 179 168 166 167 161 158 164 168 169 169 172 174 178 184 185
284 283 281 281 284 289 296 301 306 311 312 312 312 311 306 302 297 279 264 247 225 230 232 231 208 226 250 269 279 273 259 263 267 256 242 230 223 221 220 225 224 222 228 240 240 233 224 204 192 205 206 192 148 129 165 257 254 295 228 218 243 206 198 251 295 256 191 168 206 206 183 225 232 173 171 171 171 167 162 167 170 171 172 174 176 180 184 185
285 283 279 278 282 287 294 299 305 310 313 316 316 313 308 301 289 274 253 210 194 211 211 198 158 235 254 257 268 266 279 293 280 275 255 230 220 222 227 228 222 220 230 239 234 218 208 200 181 172 185 186 167 152 189 216 203 205 186 194 239 224 210 213 262 255 161 151 193 190 204 237 237 169 173 176 175 170 170 171 172 173 174 176 178 180 181 183
286 283 279 277 280 285 290 297 303 310 317 318 316 314 317 314 301 283 217 189 183 182 210 196 184 201 274 273 276 279 296 297 286 289 254 221 214 218 224 225 224 230 239 230 215 201 193 194 174 179 198 192 189 186 197 192 155 169 184 184 188 205 239 222 246 258 155 140 197 188 203 217 191 184 179 176 178 177 176 174 173 175 175 176 177 177 178 181
286 283 278 275 277 283 289 296 302 312 319 318 318 324 350 358 331 326 224 225 228 239 258 238 212 230 267 275 279 289 293 280 277 279 237 205 206 205 208 214 218 226 228 185 191 190 180 187 202 201 201 189 190 186 186 182 156 157 167 200 209 206 257 248 254 285 164 141 239 204 193 208 189 191 185 176 178 179 178 176 176 176 175 175 175 176 178 179
287 282 279 275 275 282 287 293 301 312 317 315 318 322 340 356 342 333 319 283 268 263 261 260 247 248 263 268 271 286 296 287 275 254 213 193 200 195 193 194 186 199 213 190 172 178 179 201 216 199 184 172 173 164 167 193 199 180 169 207 245 219 245 263 254 285 273 163 264 207 181 233 201 185 188 176 175 180 182 180 178 178 178 177 175 175 177 178
289 282 278 275 274 280 285 291 299 309 313 311 311 306 320 348 343 322 317 294 284 278 263 260 255 253 261 264 264 271 280 288 275 247 209 190 199 193 180 176 169 183 192 181 172 175 195 219 206 178 162 150 152 159 167 192 204 210 197 194 256 238 254 289 284 297 291 167 262 221 204 254 202 175 189 178 179 186 185 184 179 179 178 177 176 174 175 177
291 285 278 275 273 277 282 289 296 305 309 306 300 300 327 344 343 327 309 285 286 280 260 253 246 244 252 256 256 253 238 241 257 245 215 192 199 191 173 167 174 182 179 187 187 172 201 229 188 167 159 148 150 168 170 192 204 203 193 185 243 241 195 276 291 314 318 197 242 161 223 276 129 165 196 189 189 189 187 186 182 180 181 181 181 177 176 177
292 290 281 276 272 275 281 286 294 304 304 298 292 307 333 338 343 334 302 269 280 276 261 255 244 240 244 249 249 231 217 220 233 236 216 197 197 188 179 169 160 186 199 188 181 179 231 245 167 157 167 170 174 175 172 188 212 217 197 188 225 228 189 217 285 324 337 327 298 89 353 302 164 160 198 200 198 193 185 184 182 183 183 181 179 177 177 178
290 290 285 278 269 272 279 283 291 301 299 290 285 305 327 336 346 340 283 265 281 275 271 255 240 241 243 242 232 211 212 223 227 226 214 201 195 179 172 170 167 201 197 167 167 192 246 250 167 161 177 180 183 192 184 177 192 237 214 195 210 202 176 207 347 7 17 340 290 105 48 296 228 169 187 193 198 197 181 177 178 179 176 171 170 174 178 179
288 288 287 278 269 270 275 280 288 297 301 290 267 290 315 340 354 6 194 300 292 254 224 207 213 230 227 202 192 185 193 233 231 225 212 202 198 182 165 169 176 198 176 153 173 188 213 216 172 173 181 177 192 210 196 170 167 236 216 192 200 175 153 178 7 20 61 265 276 109 154 266 304 201 187 178 184 190 178 174 177 172 168 168 169 174 177 178
285 286 287 279 270 265 265 273 283 292 299 282 254 277 303 345 3 60 148 311 284 206 162 193 199 198 196 181 172 160 132 224 216 222 213 199 197 194 190 177 159 173 154 144 203 195 171 185 186 188 183 182 203 210 190 167 160 230 200 170 176 161 169 190 165 221 228 256 299 346 157 222 291 259 189 171 177 182 176 174 174 169 167 168 172 176 176 176
281 282 286 281 269 258 259 269 279 291 299 285 274 270 276 344 0 123 153 303 244 159 161 190 189 178 182 172 165 164 192 163 157 205 207 195 189 192 198 192 157 162 170 162 206 237 156 178 193 188 190 202 203 190 171 163 169 231 177 144 159 168 179 187 186 226 240 326 292 290 144 189 272 277 116 155 171 176 177 173 167 168 170 171 174 176 176 177
279 279 282 282 272 257 253 263 275 296 309 296 286 255 257 307 278 133 253 281 174 178 212 160 167 146 148 157 171 185 204 267 147 181 187 192 195 193 200 192 155 153 209 185 195 239 187 189 192 182 198 209 192 180 166 167 193 220 149 115 130 166 174 174 186 215 142 170 251 246 169 182 264 286 65 127 168 175 177 172 169 171 171 172 173 174 176 177
278 277 278 284 277 257 247 258 273 306 312 297 286 262 268 259 119 97 237 244 99 219 134 158 180 149 145 150 187 206 210 261 293 166 173 185 190 190 189 183 169 158 225 216 189 230 264 204 194 189 204 191 175 187 173 173 185 156 126 107 87 100 113 129 170 137 115 249 247 215 183 186 256 284 163 166 200 180 170 163 168 169 167 171 174 174 177 178
278 275 276 282 278 258 249 254 268 319 311 296 289 274 250 137 83 170 217 294 332 290 28 114 166 142 155 165 178 201 206 256 314 149 169 174 174 179 163 170 180 161 197 220 205 232 270 231 202 193 197 176 158 193 183 173 179 140 115 127 118 329 9 48 7 81 169 250 249 183 177 180 217 264 224 256 283 206 172 163 166 170 169 172 174 175 177 178
278 272 275 281 277 256 246 243 255 307 304 289 287 271 144 75 297 212 255 330 328 288 348 9 83 135 176 195 171 181 165 175 259 149 160 150 156 177 167 172 179 159 195 208 181 208 237 246 262 206 197 182 157 186 182 169 182 161 118 122 145 247 317 190 236 172 210 248 250 160 164 188 223 236 252 290 292 228 191 174 169 171 171 172 174 174 174 175
278 270 271 277 273 252 237 236 260 296 298 273 272 232 122 138 225 225 267 311 330 330 345 349 328 288 175 187 213 178 153 167 204 181 148 132 143 179 196 195 168 146 180 181 151 180 224 259 258 214 201 187 173 173 174 178 185 175 158 146 159 166 165 200 216 205 245 253 285 20 161 221 252 246 262 287 285 241 201 186 177 173 171 170 170 169 168 168
277 271 274 275 269 252 234 228 257 293 293 270 262 118 155 189 243 263 271 289 315 327 338 331 311 273 168 187 220 160 154 264 191 158 124 133 147 180 203 210 181 149 123 149 164 175 193 239 231 200 199 185 184 185 166 158 173 185 164 140 164 175 165 193 200 185 229 255 300 339 182 203 216 273 294 283 267 172 133 149 168 166 165 162 158 159 158 158
281 280 285 281 266 247 231 227 262 279 270 259 166 172 198 196 255 290 338 333 321 328 328 319 309 204 165 200 213 171 181 232 189 147 116 154 164 181 189 199 195 167 128 156 196 177 187 233 245 207 204 182 182 190 157 145 178 195 142 136 190 191 147 131 185 177 173 201 294 307 220 205 182 275 326 333 174 117 108 118 132 139 148 148 145 149 151 151
295 293 290 285 274 251 224 230 262 237 210 177 161 219 220 234 280 308 9 356 323 326 328 322 337 58 118 187 206 209 197 165 179 163 103 178 178 190 187 185 183 172 143 157 195 165 173 239 275 204 208 200 190 188 168 164 181 167 154 181 195 156 131 122 204 159 99 154 239 320 255 302 64 297 0 84 112 109 105 112 123 130 138 138 137 141 145 147
307 303 295 287 285 270 195 203 227 200 177 151 199 219 223 274 286 322 359 353 319 315 329 332 355 22 7 82 280 211 179 144 186 173 210 220 198 192 185 189 179 174 174 163 191 213 157 241 273 186 196 227 205 192 188 179 167 143 183 189 128 108 135 125 181 34 63 171 241 342 243 210 108 262 116 113 119 119 120 118 117 124 129 128 129 135 139 142
317 314 309 298 287 231 177 183 192 175 160 159 228 232 227 249 305 333 341 341 320 313 324 312 302 8 33 36 338 247 168 179 202 173 186 238 248 196 168 182 189 179 184 166 161 251 144 205 279 203 187 224 200 181 223 212 187 169 178 171 138 155 202 165 180 190 140 176 260 325 247 221 188 213 155 139 144 134 128 128 124 127 128 125 125 131 135 138
332 337 332 346 351 176 170 172 169 160 156 189 211 220 237 290 302 309 315 316 300 294 301 288 272 337 358 53 312 301 169 177 195 181 167 180 235 220 172 172 193 185 178 164 165 242 124 114 284 248 201 189 160 172 214 233 221 143 141 168 168 166 177 174 175 165 152 164 165 167 240 246 228 208 168 160 161 149 143 143 138 136 134 130 129 132 135 136
346 348 310 339 359 143 163 161 159 158 174 213 201 227 275 309 290 288 301 300 286 276 281 302 307 310 316 331 325 306 278 164 176 179 191 186 202 240 204 178 174 180 175 169 179 199 94 132 249 296 264 163 177 212 195 189 193 157 149 177 186 147 136 162 168 132 134 146 150 145 214 252 248 214 177 167 161 153 149 143 136 133 133 133 134 134 134 133
351 348 267 323 351 145 156 153 161 174 231 230 219 252 260 275 276 288 299 292 282 272 270 285 287 277 283 296 329 323 313 323 163 167 223 191 178 220 218 192 166 156 162 174 190 188 145 155 184 301 297 176 225 236 190 179 181 173 174 184 182 157 124 146 213 245 112 127 154 154 197 256 262 256 175 161 152 146 137 126 118 124 129 131 134 134 134 132
345 302 290 327 347 157 158 154 173 186 223 223 237 247 251 267 275 287 294 290 283 269 262 268 266 254 250 250 243 343 291 299 165 172 179 186 194 209 215 200 176 152 149 172 199 186 157 119 152 256 233 206 239 244 204 187 160 150 183 186 166 149 132 148 197 236 151 114 123 125 160 262 274 288 160 143 131 128 131 127 121 124 129 130 132 133 133 131
299 288 297 319 307 166 164 167 188 180 227 234 240 250 252 264 276 282 287 285 283 272 260 263 276 272 237 199 146 191 239 240 172 195 200 205 218 215 216 205 185 157 148 173 187 174 170 119 131 265 293 283 289 304 301 318 105 123 191 165 148 169 162 153 172 183 169 161 127 114 204 265 289 314 120 125 120 123 131 132 128 126 129 130 131 133 131 129
296 293 289 312 267 175 170 190 194 186 223 234 242 257 260 268 272 272 278 275 269 275 277 268 285 302 259 175 153 209 234 230 323 259 223 256 228 207 218 202 186 168 157 183 179 170 189 175 125 125 1 341 324 349 345 334 99 144 200 166 160 162 138 124 131 129 159 198 161 148 204 249 272 89 119 120 117 120 129 133 132 132 133 133 133 133 132 131
316 298 284 333 313 177 178 4 43 185 203 225 253 264 262 272 265 253 254 257 253 253 266 260 250 300 321 351 139 274 277 179 245 317 310 290 261 232 290 203 176 173 185 182 167 160 176 184 144 144 140 161 189 202 209 228 217 348 22 69 131 150 140 135 123 124 183 219 153 153 191 210 172 142 133 131 127 126 131 133 133 133 133 135 136 137 139 141
329 304 293 350 86 175 201 336 351 219 180 207 264 263 247 256 270 261 256 254 253 250 247 250 250 253 311 324 24 313 301 216 205 334 350 291 279 258 311 332 126 135 190 179 162 150 146 146 155 153 160 178 187 207 218 180 110 47 9 24 0 176 141 119 111 149 182 167 161 209 178 146 160 161 147 145 142 137 138 138 136 136 136 138 141 143 145 148
313 303 310 346 74 173 230 265 243 236 185 212 274 297 279 289 304 291 270 254 262 266 254 244 252 194 162 192 172 271 290 289 353 33 198 261 279 287 312 345 57 41 48 174 162 143 102 150 173 143 149 189 190 196 196 118 111 157 98 33 0 343 123 120 144 182 154 138 207 237 163 152 172 173 160 157 153 147 150 149 144 142 142 143 145 145 146 148
307 295 288 299 312 160 224 242 235 244 250 259 284 313 311 305 302 297 280 271 271 271 263 28 353 47 169 189 172 150 269 300 357 350 245 272 291 322 339 345 39 25 23 134 156 137 112 149 177 110 89 62 353 238 162 114 112 132 92 58 12 334 166 143 167 188 147 145 208 195 168 169 177 174 169 164 157 151 150 149 145 141 141 142 141 141 142 143
324 306 288 285 266 254 276 285 283 271 260 255 264 267 270 284 285 271 262 295 292 275 243 66 358 345 316 193 124 137 195 179 41 302 270 329 315 339 19 2 353 10 30 83 113 95 102 109 165 117 90 40 4 319 129 109 105 57 43 36 24 333 218 156 149 180 140 138 168 160 161 178 176 172 168 150 140 137 136 138 138 137 138 138 137 137 137 139
334 319 302 292 269 259 262 262 258 250 244 235 239 253 249 257 280 288 271 260 284 310 3 34 341 328 332 24 76 129 199 170 150 234 235 16 340 324 78 66 304 349 13 62 5 16 82 101 227 106 76 12 349 337 25 99 105 75 33 14 26 27 344 86 117 137 103 94 120 129 125 16 50 132 131 128 132 133 134 138 139 139 141 139 136 136 137 138
341 334 320 302 282 281 259 228 192 185 202 216 221 254 275 257 286 321 306 257 238 266 20 12 328 324 341 20 50 200 243 206 189 227 240 252 276 252 76 119 164 356 356 21 8 18 81 93 320 82 77 312 321 337 349 74 80 63 29 8 16 30 357 310 239 194 134 119 117 120 132 170 134 122 122 132 138 138 141 144 142 144 146 143 140 139 139 140
344 341 335 316 279 318 336 33 144 190 220 238 253 303 306 291 308 317 304 285 232 132 19 355 329 339 353 355 0 312 299 294 284 297 234 212 177 74 76 104 126 108 26 26 40 37 114 129 130 95 105 276 304 314 324 46 58 13 318 350 359 347 310 300 296 276 142 132 136 156 177 162 143 136 135 142 147 148 151 151 149 150 148 145 143 142 142 142
Height
1504 1503 1502 1501 1500 1498 1497 1496 1495 1493 1492 1491 1490 1489 1487 1486 1485 1484 1483 1482 1482 1481 1479 1478 1477 1476 1475 1475 1474 1473 1473 1472 1472 1473 1469 1468 1472 1475 1476 1477 1478 1479 1479 1480 1480 1481 1481 1481 1482 1482 1483 1483 1484 1484 1485 1486 1487 1488 1490 1494 1494 1492 1489 1485 1481 1478 1476 1473 1471 1470 1470 1472 1470 1467 1464 1466 1470 1470 1473 1475 1475 1476 1477 1478 1480 1482 1485 1489
1504 1503 1501 1500 1499 1498 1496 1495 1494 1493 1491 1490 1489 1488 1487 1486 1484 1483 1482 1482 1481 1480 1479 1477 1476 1475 1474 1473 1472 1472 1472 1471 1470 1468 1466 1468 1471 1473 1474 1475 1477 1477 1477 1478 1479 1480 1480 1480 1481 1482 1482 1482 1483 1483 1484 1484 1485 1486 1488 1491 1490 1487 1484 1480 1477 1475 1474 1473 1471 1470 1469 1470 1469 1467 1465 1468 1472 1471 1472 1476 1477 1477 1479 1481 1481 1484 1487 1489
1502 1501 1500 1499 1498 1496 1495 1494 1493 1491 1490 1489 1488 1487 1486 1485 1484 1482 1482 1481 1480 1479 1478 1476 1475 1474 1473 1472 1472 1471 1470 1470 1467 1465 1465 1467 1468 1469 1471 1473 1475 1476 1476 1477 1478 1479 1479 1480 1480 1481 1481 1481 1482 1482 1483 1483 1483 1483 1485 1488 1485 1482 1480 1477 1475 1474 1473 1473 1472 1471 1468 1468 1469 1467 1466 1468 1472 1472 1471 1473 1475 1478 1479 1481 1482 1484 1487 1490
1501 1500 1499 1498 1497 1495 1494 1493 1492 1490 1489 1488 1487 1486 1485 1484 1483 1481 1481 1480 1479 1478 1477 1476 1474 1473 1472 1471 1471 1470 1471 1470 1465 1463 1464 1464 1464 1466 1467 1469 1473 1474 1474 1475 1477 1478 1478 1479 1480 1480 1481 1481 1481 1481 1482 1481 1482 1481 1482 1483 1481 1479 1478 1474 1473 1472 1472 1472 1472 1471 1469 1468 1468 1467 1466 1466 1472 1476 1472 1467 1467 1472 1475 1478 1481 1484 1486 1489
1500 1499 1498 1497 1495 1494 1493 1492 1490 1489 1488 1487 1486 1485 1484 1483 1482 1481 1480 1478 1478 1477 1476 1475 1473 1472 1471 1470 1470 1470 1472 1469 1462 1460 1461 1460 1461 1462 1463 1466 1470 1471 1472 1474 1475 1476 1476 1478 1479 1480 1480 1480 1480 1480 1480 1479 1480 1480 1479 1479 1478 1478 1476 1472 1471 1470 1470 1471 1471 1471 1470 1468 1467 1466 1465 1464 1468 1471 1467 1465 1464 1465 1469 1472 1477 1481 1485 1488
1498 1497 1496 1495 1494 1493 1492 1491 1489 1488 1486 1485 1484 1483 1483 1482 1481 1480 1479 1478 1477 1475 1474 1473 1472 1471 1470 1469 1470 1470 1471 1465 1458 1459 1459 1459 1459 1458 1459 1462 1466 1468 1470 1472 1473 1474 1475 1477 1478 1479 1479 1479 1479 1479 1478 1478 1480 1480 1478 1477 1477 1476 1475 1472 1471 1469 1468 1470 1471 1471 1470 1469 1468 1467 1466 1464 1465 1464 1463 1466 1467 1465 1466 1469 1473 1478 1483 1486
1497 1496 1495 1493 1492 1491 1490 1489 1488 1487 1485 1484 1483 1482 1481 1480 1480 1479 1478 1477 1476 1474 1473 1472 1471 1470 1469 1469 1468 1469 1469 1461 1457 1459 1458 1458 1458 1456 1457 1459 1462 1465 1467 1469 1471 1472 1473 1475 1477 1478 1479 1479 1478 1478 1477 1477 1478 1479 1478 1476 1475 1475 1474 1472 1471 1468 1467 1468 1468 1469 1470 1470 1469 1468 1467 1466 1465 1465 1466 1468 1470 1471 1471 1473 1475 1479 1482 1486
1496 1495 1493 1492 1491 1489 1489 1487 1486 1485 1484 1483 1482 1480 1480 1479 1478 1477 1477 1476 1474 1473 1472 1471 1470 1469 1468 1468 1468 1468 1464 1457 1457 1458 1457 1458 1457 1456 1456 1457 1460 1463 1465 1467 1468 1470 1472 1473 1475 1477 1478 1478 1477 1477 1477 1477 1477 1477 1477 1475 1474 1473 1472 1471 1470 1468 1466 1465 1465 1467 1470 1470 1468 1467 1467 1468 1467 1466 1468 1469 1472 1475 1476 1478 1479 1480 1483 1487
1495 1493 1492 1491 1489 1488 1487 1486 1485 1483 1482 1481 1480 1479 1478 1477 1476 1475 1475 1474 1473 1472 1471 1470 1470 1469 1468 1467 1469 1466 1456 1452 1456 1457 1457 1458 1457 1457 1456 1457 1460 1462 1464 1465 1468 1469 1470 1472 1473 1474 1476 1476 1477 1476 1476 1478 1477 1474 1474 1474 1473 1472 1471 1470 1469 1467 1466 1463 1463 1466 1469 1469 1467 1467 1469 1470 1469 1468 1469 1471 1473 1476 1478 1481 1482 1483 1485 1487
1493 1492 1491 1489 1488 1487 1485 1484 1483 1481 1480 1479 1478 1477 1476 1475 1474 1473 1473 1472 1472 1471 1470 1470 1468 1468 1468 1467 1469 1464 1451 1451 1455 1455 1457 1457 1457 1458 1457 1458 1460 1462 1464 1465 1466 1467 1468 1470 1472 1474 1476 1475 1476 1475 1475 1477 1476 1472 1473 1473 1472 1471 1470 1470 1469 1467 1466 1463 1462 1465 1467 1468 1466 1467 1471 1471 1470 1469 1470 1473 1476 1478 1480 1482 1485 1486 1487 1489
1492 1491 1490 1488 1487 1485 1484 1483 1481 1480 1479 1477 1476 1475 1473 1473 1472 1471 1471 1470 1470 1470 1469 1468 1467 1467 1466 1466 1467 1459 1449 1450 1452 1453 1455 1455 1456 1457 1457 1458 1459 1461 1463 1464 1465 1466 1468 1470 1472 1474 1475 1475 1474 1474 1474 1474 1473 1471 1472 1471 1471 1470 1469 1469 1468 1467 1466 1463 1460 1462 1465 1467 1467 1466 1468 1469 1471 1471 1470 1474 1478 1480 1481 1484 1486 1488 1489 1491
1490 1490 1489 1487 1486 1484 1482 1481 1479 1478 1477 1475 1474 1472 1471 1470 1469 1469 1468 1468 1468 1468 1467 1467 1467 1466 1465 1465 1459 1450 1448 1450 1451 1451 1452 1452 1454 1456 1457 1458 1459 1460 1461 1463 1464 1465 1468 1469 1471 1473 1473 1473 1473 1474 1473 1472 1472 1470 1470 1472 1470 1469 1468 1467 1466 1466 1465 1463 1459 1460 1466 1467 1467 1466 1466 1468 1471 1473 1472 1475 1479 1481 1482 1484 1486 1488 1490 1491
1489 1488 1487 1486 1484 1482 1481 1479 1478 1477 1475 1474 1472 1470 1469 1468 1467 1467 1466 1466 1465 1466 1465 1465 1465 1464 1465 1458 1447 1445 1448 1450 1450 1449 1449 1451 1452 1454 1456 1457 1458 1459 1460 1461 1462 1465 1467 1468 1470 1472 1472 1472 1473 1472 1471 1470 1471 1470 1470 1471 1471 1471 1469 1464 1464 1464 1464 1463 1458 1462 1470 1469 1467 1467 1467 1468 1470 1473 1475 1476 1479 1481 1482 1484 1486 1488 1490 1491
1487 1486 1485 1485 1483 1481 1479 1478 1477 1475 1473 1472 1470 1468 1467 1466 1465 1464 1464 1464 1463 1464 1464 1464 1463 1463 1462 1452 1442 1444 1447 1447 1447 1446 1448 1450 1450 1452 1455 1456 1457 1458 1459 1460 1461 1463 1466 1467 1469 1471 1471 1471 1471 1472 1471 1471 1471 1470 1470 1471 1473 1476 1471 1462 1462 1463 1463 1462 1458 1463 1473 1469 1468 1470 1468 1470 1470 1471 1475 1477 1479 1481 1482 1484 1486 1488 1489 1491
1484 1484 1483 1483 1482 1480 1478 1477 1475 1473 1472 1470 1468 1466 1464 1463 1462 1461 1461 1461 1461 1461 1461 1462 1462 1461 1460 1449 1441 1443 1442 1443 1444 1445 1448 1449 1449 1450 1452 1455 1456 1457 1458 1459 1460 1462 1464 1466 1468 1468 1469 1470 1471 1473 1474 1473 1471 1471 1474 1475 1475 1476 1471 1462 1461 1462 1462 1461 1459 1464 1472 1469 1469 1471 1468 1471 1471 1470 1473 1477 1479 1480 1482 1484 1486 1488 1489 1491
1482 1481 1481 1480 1480 1478 1477 1475 1474 1472 1470 1468 1466 1464 1462 1461 1460 1459 1459 1458 1459 1460 1460 1461 1460 1460 1459 1448 1441 1441 1440 1440 1441 1443 1445 1446 1447 1448 1451 1453 1454 1456 1458 1458 1459 1461 1463 1465 1466 1466 1468 1469 1471 1473 1476 1478 1476 1473 1476 1477 1475 1474 1473 1466 1461 1459 1459 1460 1460 1463 1469 1468 1468 1469 1469 1471 1472 1472 1473 1476 1478 1480 1481 1483 1485 1487 1489 1491
1480 1479 1479 1478 1478 1477 1475 1474 1472 1470 1469 1466 1463 1461 1460 1458 1457 1457 1456 1457 1458 1458 1459 1459 1458 1460 1454 1443 1439 1439 1438 1438 1439 1439 1440 1443 1446 1446 1449 1451 1453 1455 1456 1457 1458 1460 1462 1463 1464 1465 1466 1467 1469 1472 1479 1483 1480 1477 1477 1476 1474 1473 1474 1470 1462 1458 1458 1460 1462 1463 1465 1466 1466 1467 1469 1471 1472 1473 1474 1475 1478 1479 1481 1483 1484 1486 1487 1489
1477 1477 1476 1476 1476 1475 1474 1472 1471 1469 1467 1465 1461 1459 1457 1455 1455 1454 1454 1456 1456 1458 1459 1457 1459 1459 1445 1436 1438 1437 1437 1438 1437 1438 1438 1440 1444 1445 1448 1450 1452 1455 1455 1456 1456 1457 1461 1461 1461 1464 1464 1466 1467 1470 1477 1478 1475 1477 1477 1475 1474 1473 1472 1471 1464 1458 1458 1460 1462 1464 1466 1467 1468 1468 1468 1469 1471 1472 1473 1475 1476 1478 1480 1482 1483 1485 1487 1489
1475 1474 1474 1474 1474 1473 1472 1471 1469 1468 1466 1463 1460 1457 1455 1454 1453 1453 1454 1455 1455 1456 1455 1452 1453 1451 1437 1432 1437 1436 1436 1437 1436 1436 1437 1438 1441 1443 1446 1449 1451 1453 1454 1454 1454 1454 1457 1459 1460 1462 1461 1463 1463 1465 1469 1468 1468 1472 1474 1472 1472 1471 1470 1469 1464 1458 1458 1461 1462 1464 1466 1466 1468 1469 1468 1469 1471 1472 1473 1474 1476 1478 1479 1481 1483 1485 1487 1489
1473 1472 1472 1472 1471 1471 1470 1469 1468 1467 1465 1462 1459 1457 1455 1455 1454 1454 1454 1454 1451 1449 1447 1444 1444 1442 1435 1432 1435 1436 1435 1435 1435 1435 1435 1437 1439 1441 1444 1448 1450 1452 1453 1452 1452 1452 1455 1458 1457 1455 1456 1458 1460 1462 1464 1465 1466 1469 1471 1472 1471 1471 1470 1466 1463 1459 1458 1461 1461 1461 1464 1465 1467 1468 1467 1468 1471 1473 1474 1475 1476 1478 1479 1481 1483 1485 1487 1489
1470 1470 1470 1469 1469 1469 1469 1468 1466 1465 1464 1461 1459 1458 1458 1458 1457 1456 1454 1450 1446 1444 1442 1441 1441 1438 1433 1430 1433 1436 1436 1434 1433 1433 1434 1435 1438 1440 1442 1444 1448 1451 1451 1451 1451 1451 1453 1455 1454 1453 1455 1457 1460 1462 1463 1465 1465 1468 1470 1471 1471 1472 1469 1464 1462 1460 1458 1462 1461 1460 1463 1463 1464 1467 1467 1467 1470 1472 1473 1474 1476 1477 1479 1481 1482 1485 1487 1489
1468 1467 1467 1467 1467 1467 1467 1466 1465 1464 1462 1461 1460 1459 1459 1459 1459 1458 1456 1449 1440 1438 1438 1437 1437 1434 1428 1428 1431 1435 1438 1435 1432 1431 1432 1434 1435 1437 1439 1442 1446 1447 1449 1450 1450 1452 1453 1452 1451 1453 1455 1456 1459 1461 1462 1464 1465 1468 1470 1472 1473 1471 1468 1465 1462 1459 1459 1461 1461 1461 1462 1460 1463 1465 1465 1466 1467 1468 1469 1470 1473 1475 1478 1480 1482 1484 1486 1488
1466 1465 1465 1465 1465 1465 1465 1464 1463 1462 1461 1459 1459 1458 1458 1458 1458 1457 1457 1451 1437 1430 1431 1430 1430 1427 1422 1425 1429 1433 1435 1435 1432 1429 1430 1433 1433 1435 1437 1439 1443 1445 1447 1447 1447 1452 1455 1451 1449 1452 1454 1456 1459 1460 1461 1463 1465 1467 1469 1473 1473 1469 1470 1468 1463 1460 1459 1459 1459 1460 1461 1460 1462 1465 1464 1464 1463 1464 1466 1468 1470 1472 1474 1476 1478 1480 1482 1484
1464 1463 1463 1463 1463 1463 1463 1462 1461 1461 1459 1458 1457 1457 1457 1457 1456 1455 1454 1451 1437 1424 1422 1422 1422 1420 1417 1421 1426 1429 1430 1430 1430 1427 1428 1430 1431 1433 1434 1436 1442 1444 1444 1444 1446 1450 1451 1447 1447 1450 1452 1454 1458 1460 1461 1463 1466 1467 1467 1470 1469 1468 1470 1468 1465 1461 1458 1458 1458 1460 1466 1462 1459 1464 1464 1463 1464 1464 1466 1469 1471 1473 1474 1476 1479 1481 1484 1484
1462 1462 1461 1461 1461 1461 1461 1460 1459 1459 1457 1456 1457 1456 1457 1456 1454 1454 1452 1450 1438 1423 1417 1417 1417 1415 1414 1420 1424 1425 1427 1426 1425 1424 1426 1428 1429 1431 1433 1434 1439 1441 1441 1443 1447 1449 1448 1446 1445 1448 1451 1453 1455 1458 1460 1462 1466 1467 1465 1464 1465 1466 1468 1467 1466 1464 1466 1467 1459 1461 1474 1467 1455 1461 1463 1461 1465 1466 1467 1469 1471 1474 1476 1478 1481 1484 1486 1487
1460 1459 1459 1459 1459 1458 1459 1458 1457 1457 1455 1455 1455 1454 1455 1454 1453 1452 1452 1453 1441 1422 1416 1416 1414 1412 1411 1416 1419 1423 1427 1423 1419 1421 1424 1426 1428 1429 1432 1433 1434 1437 1440 1443 1446 1447 1445 1445 1445 1447 1450 1452 1455 1457 1457 1459 1465 1467 1461 1459 1462 1465 1467 1467 1467 1469 1474 1473 1462 1461 1474 1471 1457 1457 1460 1459 1463 1465 1466 1469 1470 1472 1475 1477 1480 1483 1486 1488
1457 1457 1457 1457 1457 1457 1457 1456 1456 1455 1454 1454 1453 1453 1454 1452 1452 1451 1452 1455 1439 1417 1414 1415 1413 1410 1409 1410 1413 1420 1424 1418 1415 1419 1421 1423 1426 1428 1430 1431 1432 1435 1437 1441 1446 1443 1440 1443 1446 1447 1449 1452 1454 1455 1454 1455 1462 1464 1456 1456 1462 1464 1467 1467 1468 1472 1472 1470 1466 1461 1466 1473 1464 1455 1457 1458 1460 1464 1466 1469 1470 1472 1474 1476 1479 1482 1484 1487
1455 1455 1455 1455 1454 1455 1455 1454 1454 1453 1453 1452 1450 1451 1451 1450 1452 1451 1454 1452 1428 1409 1409 1411 1410 1409 1408 1411 1412 1414 1415 1412 1413 1417 1419 1422 1425 1425 1428 1429 1431 1434 1433 1438 1445 1441 1437 1441 1444 1446 1449 1451 1450 1450 1450 1453 1458 1458 1453 1454 1459 1462 1463 1464 1467 1471 1470 1471 1473 1465 1465 1477 1469 1455 1458 1459 1460 1466 1466 1466 1470 1471 1473 1475 1477 1481 1484 1487
1453 1453 1453 1453 1452 1452 1453 1452 1452 1452 1452 1450 1449 1450 1448 1450 1450 1449 1456 1447 1417 1404 1407 1406 1408 1410 1409 1413 1414 1411 1411 1412 1412 1414 1417 1422 1423 1424 1427 1428 1431 1434 1434 1436 1441 1439 1436 1438 1440 1443 1447 1446 1445 1446 1447 1451 1454 1453 1452 1454 1457 1459 1460 1463 1467 1468 1472 1476 1475 1466 1465 1475 1468 1454 1460 1463 1461 1465 1464 1463 1466 1467 1470 1473 1476 1480 1483 1485
1450 1450 1451 1451 1450 1450 1450 1450 1451 1451 1451 1449 1448 1448 1447 1449 1449 1453 1458 1439 1410 1404 1406 1405 1408 1409 1410 1413 1414 1412 1411 1411 1411 1413 1416 1419 1422 1424 1426 1429 1431 1434 1435 1437 1439 1439 1436 1436 1437 1438 1440 1441 1442 1444 1445 1448 1451 1450 1452 1455 1458 1461 1460 1464 1467 1468 1476 1478 1469 1463 1461 1468 1468 1457 1457 1462 1460 1460 1459 1463 1466 1466 1469 1472 1474 1478 1480 1483
1448 1448 1448 1449 1449 1448 1448 1449 1450 1450 1450 1448 1447 1447 1447 1448 1451 1457 1449 1422 1408 1409 1406 1406 1408 1407 1410 1411 1412 1413 1412 1412 1411 1412 1415 1417 1420 1423 1426 1430 1433 1436 1439 1439 1439 1439 1437 1437 1436 1433 1435 1438 1440 1443 1445 1447 1448 1450 1453 1457 1463 1467 1465 1468 1470 1471 1481 1476 1462 1460 1458 1463 1468 1459 1457 1461 1458 1456 1454 1457 1463 1465 1467 1469 1472 1476 1478 1481
1446 1446 1446 1446 1446 1446 1446 1447 1448 1449 1448 1447 1447 1446 1447 1450 1453 1451 1435 1415 1414 1414 1407 1408 1408 1408 1411 1410 1409 1411 1411 1412 1412 1412 1414 1416 1419 1421 1423 1427 1430 1437 1443 1442 1441 1441 1439 1436 1434 1432 1432 1435 1438 1444 1447 1447 1448 1451 1455 1459 1469 1475 1475 1478 1477 1477 1480 1469 1458 1461 1460 1461 1464 1460 1461 1462 1457 1455 1451 1450 1453 1457 1461 1466 1470 1474 1477 1480
1444 1444 1443 1443 1443 1443 1443 1445 1447 1448 1447 1446 1446 1445 1447 1454 1451 1439 1428 1422 1419 1414 1409 1409 1408 1407 1410 1409 1409 1409 1410 1411 1411 1412 1413 1414 1419 1421 1422 1423 1425 1430 1438 1440 1441 1443 1443 1438 1433 1433 1432 1430 1434 1442 1447 1449 1450 1453 1456 1460 1469 1476 1481 1485 1482 1481 1478 1462 1456 1461 1460 1460 1461 1459 1462 1461 1456 1455 1452 1452 1453 1453 1457 1462 1468 1472 1475 1479
1442 1442 1442 1441 1441 1440 1440 1444 1445 1446 1446 1445 1445 1445 1448 1453 1445 1431 1426 1426 1420 1413 1411 1411 1408 1406 1407 1408 1407 1407 1411 1412 1410 1412 1413 1414 1419 1422 1422 1423 1422 1423 1429 1436 1440 1441 1445 1442 1433 1431 1431 1427 1429 1435 1439 1444 1447 1449 1451 1455 1463 1465 1469 1476 1476 1475 1473 1463 1459 1460 1460 1462 1462 1460 1459 1457 1455 1454 1453 1456 1458 1459 1462 1464 1468 1472 1475 1478
1441 1441 1441 1439 1439 1438 1439 1442 1444 1444 1446 1445 1444 1446 1447 1446 1439 1431 1429 1428 1424 1419 1415 1411 1407 1405 1406 1407 1405 1404 1407 1411 1410 1411 1413 1415 1418 1420 1420 1421 1421 1421 1425 1434 1438 1436 1440 1439 1427 1425 1427 1424 1427 1431 1432 1438 1446 1447 1447 1452 1458 1454 1454 1463 1468 1466 1464 1461 1462 1464 1465 1466 1463 1460 1457 1455 1454 1454 1454 1458 1461 1464 1467 1468 1469 1472 1474 1477
1440 1440 1439 1438 1437 1438 1439 1441 1442 1443 1444 1445 1445 1446 1443 1438 1435 1432 1431 1431 1429 1426 1421 1413 1406 1406 1409 1407 1406 1405 1404 1408 1410 1412 1414 1414 1415 1416 1417 1417 1418 1419 1420 1427 1434 1434 1437 1435 1424 1422 1425 1422 1424 1427 1427 1434 1441 1445 1448 1449 1449 1446 1447 1457 1466 1468 1465 1461 1465 1473 1472 1467 1464 1461 1458 1456 1456 1455 1457 1461 1463 1465 1468 1469 1471 1473 1475 1477
1439 1438 1437 1437 1436 1437 1439 1440 1441 1442 1443 1445 1446 1444 1440 1436 1433 1431 1432 1433 1433 1429 1428 1422 1412 1410 1412 1409 1407 1406 1405 1408 1410 1411 1414 1414 1413 1413 1413 1413 1414 1416 1417 1420 1426 1429 1431 1431 1423 1421 1424 1422 1421 1424 1425 1427 1431 1439 1445 1443 1442 1446 1448 1451 1459 1468 1467 1463 1472 1480 1474 1468 1467 1463 1459 1459 1460 1458 1459 1462 1465 1467 1469 1471 1473 1474 1476 1479
1438 1437 1436 1436 1436 1436 1437 1439 1440 1441 1442 1444 1445 1442 1438 1435 1433 1431 1432 1434 1434 1431 1431 1428 1419 1413 1414 1413 1411 1408 1407 1410 1411 1410 1412 1413 1411 1409 1409 1412 1412 1413 1415 1417 1422 1424 1427 1429 1424 1419 1421 1420 1419 1424 1429 1427 1425 1430 1434 1433 1438 1449 1453 1451 1456 1463 1465 1469 1478 1480 1475 1471 1467 1462 1459 1460 1460 1459 1461 1463 1465 1467 1469 1471 1474 1476 1478 1481
1438 1437 1436 1436 1436 1435 1436 1438 1439 1441 1442 1443 1444 1441 1437 1436 1433 1432 1433 1434 1434 1433 1431 1427 1421 1417 1414 1414 1414 1410 1407 1409 1410 1410 1411 1412 1410 1406 1406 1408 1410 1412 1413 1415 1420 1421 1424 1429 1426 1419 1418 1418 1419 1425 1431 1430 1427 1427 1430 1430 1432 1438 1443 1446 1451 1453 1456 1468 1478 1478 1478 1473 1462 1457 1457 1457 1457 1457 1458 1462 1464 1467 1469 1471 1474 1477 1479 1482
1438 1438 1437 1436 1436 1435 1436 1438 1440 1441 1442 1441 1441 1439 1437 1436 1434 1432 1434 1434 1433 1431 1428 1423 1422 1421 1416 1413 1414 1412 1408 1407 1408 1409 1409 1409 1409 1407 1405 1405 1408 1410 1412 1414 1417 1419 1423 1429 1428 1422 1419 1420 1422 1422 1424 1427 1428 1428 1431 1434 1433 1432 1435 1440 1446 1447 1447 1460 1476 1480 1479 1470 1456 1452 1454 1454 1455 1456 1457 1460 1464 1467 1470 1472 1475 1477 1480 1482
1439 1439 1437 1435 1436 1435 1436 1439 1440 1440 1441 1440 1439 1438 1437 1436 1433 1432 1433 1434 1432 1429 1426 1423 1421 1421 1418 1415 1415 1414 1412 1408 1406 1407 1407 1407 1407 1406 1403 1402 1405 1408 1412 1415 1416 1417 1423 1427 1427 1426 1423 1422 1421 1417 1416 1419 1422 1424 1427 1430 1431 1431 1435 1443 1449 1448 1442 1450 1465 1470 1467 1461 1455 1452 1452 1454 1456 1457 1459 1462 1465 1469 1471 1473 1476 1478 1480 1483
1440 1439 1436 1435 1435 1435 1436 1438 1439 1440 1440 1439 1437 1437 1436 1434 1433 1432 1432 1432 1430 1426 1424 1421 1418 1417 1416 1414 1415 1416 1415 1409 1405 1406 1405 1404 1405 1403 1400 1400 1402 1404 1409 1414 1415 1415 1418 1423 1427 1427 1424 1421 1418 1415 1415 1415 1416 1419 1421 1423 1427 1428 1432 1440 1445 1444 1442 1448 1458 1460 1455 1455 1456 1453 1451 1454 1457 1458 1461 1463 1466 1471 1473 1474 1477 1479 1481 1483
1440 1438 1435 1435 1435 1435 1437 1439 1440 1440 1439 1437 1435 1435 1434 1434 1433 1432 1431 1431 1428 1424 1421 1418 1415 1414 1412 1411 1414 1417 1415 1409 1405 1404 1403 1402 1401 1399 1398 1399 1401 1403 1406 1410 1413 1413 1416 1421 1426 1427 1423 1418 1415 1413 1414 1415 1415 1418 1418 1420 1424 1425 1424 1428 1432 1435 1440 1446 1452 1455 1456 1456 1456 1454 1452 1454 1458 1460 1463 1464 1466 1471 1473 1475 1477 1480 1482 1483
1439 1437 1435 1435 1434 1434 1436 1437 1437 1438 1437 1436 1435 1434 1434 1433 1432 1432 1431 1430 1427 1423 1420 1417 1414 1412 1409 1410 1412 1413 1411 1409 1405 1402 1403 1402 1399 1396 1397 1396 1398 1402 1404 1406 1408 1410 1415 1421 1425 1429 1430 1425 1422 1421 1420 1418 1416 1416 1418 1418 1419 1420 1420 1423 1428 1432 1438 1444 1443 1445 1455 1460 1457 1455 1455 1456 1459 1463 1465 1466 1467 1470 1473 1475 1477 1480 1482 1484
1439 1437 1434 1434 1433 1433 1435 1435 1435 1436 1437 1436 1436 1434 1434 1432 1430 1430 1429 1426 1423 1421 1419 1415 1412 1411 1410 1410 1412 1411 1409 1409 1408 1404 1403 1403 1398 1395 1395 1395 1395 1398 1399 1402 1403 1406 1414 1419 1421 1429 1435 1435 1433 1431 1427 1423 1419 1418 1420 1419 1417 1419 1420 1422 1429 1432 1438 1445 1442 1439 1449 1459 1459 1457 1457 1458 1461 1464 1466 1468 1469 1471 1474 1476 1478 1481 1483 1486
1440 1438 1435 1434 1433 1434 1435 1435 1435 1436 1436 1437 1436 1434 1433 1432 1429 1426 1424 1422 1419 1417 1415 1412 1410 1411 1412 1412 1413 1413 1410 1408 1408 1407 1406 1404 1399 1394 1394 1394 1393 1395 1397 1398 1401 1405 1411 1416 1418 1421 1427 1428 1428 1426 1424 1424 1423 1422 1422 1421 1420 1422 1420 1421 1428 1431 1434 1442 1444 1442 1447 1456 1458 1456 1457 1459 1460 1463 1466 1468 1470 1472 1475 1478 1481 1482 1485 1488
1441 1440 1437 1436 1436 1435 1435 1435 1435 1435 1435 1436 1436 1433 1431 1432 1429 1425 1422 1418 1416 1414 1412 1410 1408 1409 1412 1413 1415 1416 1413 1408 1406 1407 1407 1406 1401 1396 1394 1393 1392 1394 1396 1397 1399 1403 1409 1415 1417 1419 1422 1422 1421 1422 1422 1423 1425 1425 1424 1423 1422 1422 1422 1421 1423 1427 1431 1437 1442 1446 1449 1452 1453 1452 1453 1455 1458 1461 1464 1466 1469 1471 1474 1478 1481 1483 1486 1489
1441 1440 1438 1438 1437 1436 1435 1435 1434 1435 1435 1435 1434 1432 1431 1431 1430 1427 1422 1416 1414 1413 1411 1410 1409 1409 1410 1411 1411 1414 1413 1409 1406 1407 1407 1406 1403 1398 1394 1393 1394 1395 1396 1398 1400 1401 1406 1414 1419 1421 1425 1427 1425 1425 1423 1422 1427 1429 1428 1427 1424 1423 1421 1418 1421 1427 1427 1427 1433 1442 1447 1448 1449 1449 1449 1451 1453 1456 1461 1465 1468 1471 1475 1478 1481 1483 1486 1489
1442 1440 1438 1438 1437 1435 1434 1434 1433 1434 1434 1434 1434 1432 1431 1431 1428 1426 1423 1418 1414 1412 1409 1410 1411 1410 1409 1407 1407 1409 1410 1409 1408 1408 1407 1405 1404 1402 1399 1397 1396 1397 1397 1399 1401 1402 1405 1416 1421 1421 1426 1430 1429 1429 1424 1420 1426 1430 1431 1432 1430 1428 1424 1419 1423 1430 1426 1423 1430 1440 1447 1447 1446 1447 1450 1452 1455 1458 1463 1467 1469 1472 1475 1477 1480 1483 1486 1489
1443 1441 1439 1437 1436 1434 1433 1433 1433 1433 1434 1434 1433 1431 1429 1429 1426 1423 1421 1420 1417 1413 1410 1411 1413 1410 1409 1407 1406 1407 1408 1407 1408 1408 1407 1406 1405 1403 1404 1403 1401 1400 1399 1399 1402 1401 1405 1418 1421 1418 1426 1432 1430 1430 1426 1419 1423 1427 1430 1433 1431 1430 1430 1425 1426 1429 1427 1431 1438 1442 1448 1452 1449 1449 1453 1456 1459 1461 1464 1468 1470 1473 1475 1477 1481 1484 1487 1490
1443 1442 1440 1438 1436 1432 1432 1431 1431 1432 1432 1432 1432 1429 1427 1426 1424 1423 1420 1416 1416 1415 1413 1413 1413 1410 1409 1408 1407 1407 1407 1406 1406 1407 1406 1406 1405 1403 1404 1405 1404 1403 1401 1401 1403 1401 1404 1418 1422 1417 1426 1434 1431 1431 1428 1420 1421 1425 1428 1434 1435 1433 1435 1432 1429 1426 1425 1434 1445 1448 1450 1452 1450 1451 1455 1458 1461 1462 1465 1468 1471 1474 1476 1478 1481 1484 1487 1491
1443 1440 1439 1439 1436 1432 1431 1431 1430 1431 1431 1430 1429 1428 1426 1425 1423 1424 1421 1415 1413 1414 1413 1413 1412 1411 1410 1409 1408 1407 1407 1406 1406 1406 1405 1405 1405 1404 1404 1405 1405 1404 1404 1404 1405 1405 1406 1414 1419 1418 1427 1435 1433 1432 1428 1421 1424 1429 1431 1437 1440 1438 1438 1436 1433 1428 1424 1430 1441 1444 1443 1445 1447 1450 1454 1458 1461 1463 1465 1467 1470 1473 1477 1479 1481 1484 1487 1490